Regional Weather Roundup
Issued by NWS

Home | Current Version | Previous Version | Graphics & Text | Print | Product List | Glossary On
Versions: 1 2 3 4 5 6 7 8 9 10 11 12 13 14 15 16 17 18 19 20 21 22 23 24 25 26 27 28 29 30 31 32 33 34 35 36 37 38 39 40 41 42 43 44 45 46 47 48 49 50
000
ASUS43 KLSX 272307
RWRMO

WEATHER SUMMARY FOR MISSOURI
NATIONAL WEATHER SERVICE SPRINGFIELD MO
600 PM CDT WED JUL 27 2016

NOTE: "FAIR" INDICATES FEW OR NO CLOUDS BELOW 12,000 FEET WITH NO
       SIGNIFICANT WEATHER AND/OR OBSTRUCTIONS TO VISIBILITY.
       CURRENT SKY AND/OR WEATHER CONDITIONS ARE NOT AVAILABLE FOR
       CHILLICOTHE AND FARMINGTON.

MOZ001>031-035>038-043-044-053-054-280000-
...NORTHERN AND WESTERN MISSOURI...

CITY           SKY/WX    TMP DP  RH WIND       PRES   REMARKS
KANSAS CTY INT PTSUNNY   88  71  57 NW5       29.93F HX  94
KANSAS C DTWN  CLOUDY    90  68  48 N8        29.90F HX  94
LEE`S SUMMIT   SUNNY     89  69  51 E7        29.92F HX  93
ST JOSEPH      CLOUDY    88  71  57 N3        29.91F HX  94
CHILLICOTHE      N/A     89  71  55 W3        29.91F HX  95
KIRKSVILLE     MOSUNNY   89  68  49 W5        29.92F HX  93

$$
MOZ066>068-077>081-088>096-101>105-280000-
...SOUTHWEST MISSOURI...

CITY           SKY/WX    TMP DP  RH WIND       PRES   REMARKS
SPRINGFIELD    CLOUDY    84  72  67 NE5       29.93F
JOPLIN         CLOUDY    81  73  76 SE12      29.93R
BRANSON        PTSUNNY   84  75  74 N6        29.95F HX  92

$$
MOZ032>034-039>042-045>050-055>058-069>072-280000-
...CENTRAL MISSOURI...

CITY           SKY/WX    TMP DP  RH WIND       PRES   REMARKS
COLUMBIA       MOSUNNY   89  74  60 N6        29.91F HX  98
JEFFERSON CITY MOSUNNY   87  76  69 CALM      29.89S HX  97
ROLLA          MOSUNNY   87  73  62 SE6       29.92F HX  94
SEDALIA        MOSUNNY   89  75  63 NW6       29.92F HX  99
WHITEMAN AFB   MOSUNNY   89  73  58 N6        29.90F HX  97
OSAGE BEACH    MOSUNNY   87  76  69 S3        29.92F HX  97

$$
MOZ051-052-059>065-280000-
...EAST CENTRAL MISSOURI...

CITY           SKY/WX    TMP DP  RH WIND       PRES   REMARKS
ST LOUIS INTL  CLOUDY    88  72  58 E9        29.89F HX  94
SPIRIT OF STL  CLOUDY    87  76  69 S10       29.87F HX  97
ST CHARLES     PTSUNNY   89  75  63 CALM      29.87F HX  99

$$
MOZ072>076-082>087-097>100-106>115-280000-
...SOUTH CENTRAL AND SOUTHEAST MISSOURI...

CITY           SKY/WX    TMP DP  RH WIND       PRES   REMARKS
CAPE GIRARDEAU CLOUDY    92  75  57 E7        29.87S HX 103
POPLAR BLUFF   MOSUNNY   91  71  51 S5        29.86F HX  97
WEST PLAINS    TSTM      74  70  87 N9        30.00R

$$


USA.gov is the U.S. government's official web portal to all federal, state and local government web resources and services.